PCSAT (NO-44) (26931 NORAD) Tracking and Keplerian Element Data

This shows tracking and keplerian element data for the satellite.

Feedback or suggestion? Click here.




ElementValue
Catalog26931
NamePCSAT (NO-44)
Epoch Orbit93818
Epoch Day262.0669483
Epoch Year2019
RAAN125.308
Inclination67.0504
Eccentricity0.0007451
Argument of Perigee271.2142
Mean Anonmoly88.8105
Mean Motion14.30552562
Decay Rate-3.1E-07
L11 26931U 01043C 19262.06694830 -.00000031 00000-0 19801-4 0 9993
L22 26931 67.0504 125.3080 0007451 271.2142 88.8105 14.30552562938182

Live tracking and technical data element details for PCSAT (NO-44) (NORAD 26931). PCSAT (NO-44) can be tracked NOW for your location showing map with azimuth and elevation plus other details from your city location.

Track the satellite on the map from your city or location and see movement details for azimuth, elevation, latitude, longitude, range, height, and movement on the map or in text.







IsCatalogInMostPopularTable: catalog: 26931, numindb: 305
Update: records affected: 1



GetName: 26931 PCSAT (NO-44)

Hit Count: updated at: Thu, 19 Sep 2019 17:03:08 GMT